Wind_Speed
32 30 27 24 21 19 16 15 16 16 16 16 16 16 14 14 16 17 16 14 14 13 12 13 13 14 15 15 16 15 14 14 13 13 13 12 11 9 8 8 8 7 7 7 7 8 8 9 9 9 9 9 9 9 9 8 8 7 7 7 7 8 8
34 31 30 26 24 22 18 17 18 17 16 14 15 15 15 14 14 15 15 15 15 14 13 13 13 14 15 15 16 16 16 15 13 13 13 13 12 11 10 9 9 9 8 8 7 7 8 8 8 8 8 8 7 8 9 8 8 7 7 7 7 7 8
34 32 31 29 27 25 21 19 19 19 17 15 15 15 15 14 12 12 13 14 15 15 15 15 15 15 15 16 16 16 16 15 15 14 13 13 12 12 11 10 10 10 9 9 8 8 8 8 8 8 8 7 7 7 8 8 7 7 8 8 7 7 8
36 33 32 30 28 27 24 22 19 19 19 17 15 14 14 13 11 10 12 14 15 15 16 16 15 16 16 16 15 15 15 15 15 15 15 14 13 13 12 11 11 11 10 10 9 9 9 9 8 8 8 7 7 7 6 7 7 7 7 7 7 8 7
35 34 33 31 29 27 26 25 22 20 19 18 17 15 15 14 12 11 12 14 15 15 16 17 17 17 16 16 16 15 15 15 16 16 16 16 15 14 13 12 11 11 11 11 11 10 10 9 9 9 8 8 7 7 6 6 6 6 6 7 7 8 7
32 32 33 32 29 27 27 27 25 23 21 20 19 17 17 17 15 13 13 14 15 16 17 18 18 18 17 17 17 17 16 16 16 17 17 17 16 15 14 13 13 12 12 12 12 11 11 10 10 10 9 9 8 8 7 7 6 6 6 6 7 7 7
32 31 32 32 31 29 29 29 27 26 25 23 21 20 19 18 17 16 15 15 16 17 18 18 18 18 17 16 17 17 18 17 17 17 18 19 18 17 15 14 14 14 13 13 13 12 12 11 11 11 11 10 9 9 9 8 7 7 6 6 6 6 6
32 32 33 33 33 32 32 31 30 28 28 27 25 23 22 20 19 18 17 17 18 18 19 19 19 18 17 17 17 17 18 18 18 18 19 20 20 19 18 16 15 15 15 14 14 13 13 13 13 13 12 12 11 11 11 10 9 8 7 7 7 7 7
29 30 31 31 33 33 31 31 31 30 29 29 28 26 24 22 21 21 20 20 21 21 20 20 20 19 19 19 18 17 18 19 19 20 19 20 20 20 20 18 17 17 16 15 15 15 14 14 14 14 14 13 13 12 12 11 11 10 9 9 9 8 8
22 23 25 27 29 30 29 30 32 32 30 30 30 28 26 24 23 23 23 23 22 22 22 21 21 21 21 20 20 19 19 19 19 19 20 19 19 20 20 20 20 19 18 17 17 17 16 16 16 15 15 14 13 13 12 12 12 11 11 11 11 11 10
18 19 22 24 27 28 29 31 32 32 30 29 30 30 28 27 25 25 25 24 21 21 23 23 22 22 22 22 21 20 20 19 18 18 19 19 19 19 20 21 21 21 21 20 19 18 18 18 18 17 16 15 14 14 14 14 13 13 13 13 13 13 13
16 18 19 21 23 26 29 31 32 33 32 31 30 30 28 27 27 26 25 24 22 21 23 25 24 23 23 23 23 22 21 20 20 19 18 18 19 19 20 21 22 23 23 22 21 21 20 20 19 19 18 17 16 16 15 15 15 15 14 14 14 14 14
15 16 16 17 18 21 24 29 33 35 35 33 30 28 27 27 27 26 25 24 23 23 23 24 25 26 26 25 24 24 23 22 22 21 20 20 20 20 20 21 22 23 24 24 24 23 22 21 20 20 20 19 19 18 18 18 17 16 15 15 15 15 15
15 16 15 13 12 14 18 23 27 29 30 31 29 26 25 27 27 26 26 26 26 25 24 24 26 29 30 29 27 26 26 26 26 25 24 23 23 22 21 21 22 22 24 24 25 25 24 23 22 21 22 21 21 20 20 20 19 18 17 16 16 16 16
16 16 15 13 10 12 16 19 21 23 25 28 24 21 22 24 24 25 26 27 27 26 25 25 27 30 31 30 29 29 29 30 29 26 25 24 24 24 23 23 23 23 23 24 25 25 26 26 25 24 23 23 22 22 22 22 21 20 19 18 18 18 18
15 15 14 14 14 14 16 18 19 19 22 22 18 18 20 20 21 24 26 27 27 24 24 26 28 30 30 28 28 29 30 30 27 24 23 24 24 25 25 25 25 25 25 25 25 25 26 26 26 26 26 25 24 24 24 23 22 21 21 21 21 20 20
14 13 11 12 16 17 14 15 16 17 18 18 16 17 20 20 21 24 25 24 23 21 22 25 27 29 28 26 26 29 30 31 28 25 25 24 24 25 27 28 29 28 26 26 26 25 25 26 26 27 27 27 26 26 25 24 23 23 23 23 23 23 23
12 11 8 7 11 16 16 15 17 18 18 18 17 18 19 21 21 22 21 20 20 19 21 23 25 26 26 25 26 27 28 30 29 28 27 25 24 25 27 28 29 29 28 27 27 26 26 27 26 26 27 28 27 27 26 25 24 24 24 24 24 25 25
9 9 9 8 8 12 17 17 18 20 19 17 18 18 19 20 19 19 19 18 18 17 18 20 22 23 22 22 23 23 23 24 26 26 26 25 26 27 27 27 28 28 27 28 28 27 27 28 28 28 28 28 28 28 27 26 25 24 25 25 25 25 26
14 16 15 12 9 11 17 17 17 19 20 18 17 17 18 18 17 17 17 16 15 14 14 15 17 17 16 16 18 18 18 19 21 22 24 26 27 27 28 28 27 25 24 25 26 27 27 28 29 29 30 30 29 28 27 26 26 25 25 25 26 27 27
14 19 19 16 14 13 15 16 16 17 18 18 17 16 15 15 15 15 15 14 13 13 13 12 13 13 13 12 13 13 15 16 18 19 21 22 24 25 25 26 24 21 21 23 25 25 26 27 28 29 30 31 32 31 29 28 28 27 26 26 27 28 28
9 14 17 19 19 16 14 15 16 16 15 15 15 15 15 15 15 14 14 13 13 13 14 13 13 13 12 11 10 11 12 14 16 16 17 19 21 22 23 22 20 18 19 22 24 25 25 27 29 30 30 32 33 32 30 30 31 30 29 28 28 28 28
7 8 10 14 17 19 19 19 18 16 14 13 14 15 15 15 15 15 14 13 13 13 14 15 15 15 14 13 13 13 13 13 13 13 14 15 17 18 19 18 17 17 18 19 21 23 24 27 31 32 32 33 34 32 31 34 35 34 32 30 30 30 29
8 8 7 7 9 14 17 17 16 13 10 10 11 12 12 13 14 14 14 13 12 11 12 13 14 14 14 13 13 13 13 13 13 13 13 13 15 15 16 17 18 19 19 19 20 22 23 25 29 32 34 35 35 34 34 36 35 33 31 31 32 31 31
7 7 7 6 6 7 9 10 9 8 8 7 8 8 9 10 10 11 12 11 10 9 9 10 10 11 11 10 10 10 10 10 11 12 13 14 16 17 17 18 20 21 21 21 22 22 22 22 23 26 29 31 34 34 35 35 33 31 31 31 32 32 32
5 5 6 6 6 7 7 8 8 8 8 8 8 8 8 8 8 8 8 8 8 8 8 9 9 9 9 9 8 9 9 9 9 10 11 12 14 15 16 17 19 20 21 22 23 23 23 22 22 22 24 27 30 32 33 33 31 30 31 32 32 32 32
6 6 6 7 8 8 9 9 10 10 10 9 9 8 8 8 8 8 7 7 7 7 7 7 7 8 8 8 8 8 8 9 9 9 10 10 10 11 12 12 13 14 15 17 17 18 19 20 20 22 25 28 31 33 33 33 30 29 30 31 32 32 31
7 6 6 6 7 8 9 9 10 10 10 10 10 10 10 10 10 10 9 9 8 8 8 8 8 9 9 10 10 10 10 10 10 10 10 10 10 10 10 10 10 10 10 10 11 12 13 14 15 17 20 23 26 27 28 29 28 28 28 28 28 29 30
9 8 6 5 4 5 7 7 8 9 10 11 12 12 13 13 14 14 13 12 12 11 11 11 11 12 12 13 14 14 14 14 14 13 13 14 14 14 14 13 13 12 12 12 12 13 14 14 15 15 16 17 18 20 21 22 23 24 25 25 25 27 28
12 10 7 4 3 4 6 7 7 9 10 11 13 14 15 17 17 18 18 17 16 15 15 15 15 15 15 16 17 18 19 19 18 18 18 18 18 18 18 18 18 17 17 17 17 17 18 18 18 19 19 19 20 21 22 22 22 22 22 22 23 24 26
9 8 6 5 5 7 9 10 12 13 15 15 16 17 18 19 20 21 21 21 21 20 20 19 19 19 19 19 19 20 21 22 23 23 23 23 23 23 23 23 23 22 22 21 22 22 22 22 23 23 23 23 24 24 25 26 26 25 24 23 23 23 24
10 10 8 7 8 10 12 13 15 16 18 18 19 20 20 21 22 23 24 25 25 25 24 24 24 23 23 23 22 23 23 24 25 26 27 28 28 28 28 28 28 27 27 26 26 26 26 27 27 27 28 28 29 29 30 30 29 29 28 27 26 25 24
16 14 11 11 12 13 14 15 15 16 17 18 19 20 21 22 23 25 26 27 28 28 28 28 27 27 27 27 27 26 27 27 28 28 29 29 30 31 32 33 32 32 32 32 32 32 32 32 32 32 32 32 33 33 34 34 34 33 32 31 30 29 28
20 17 13 13 15 16 17 18 19 19 20 20 20 21 21 22 23 24 25 27 28 29 30 30 30 29 29 29 30 30 30 30 30 30 31 31 32 32 33 34 34 34 34 35 35 36 37 37 37 36 36 36 35 35 36 37 37 36 35 35 34 33 33
23 17 11 12 16 18 20 21 22 23 23 23 23 23 23 23 23 24 24 25 26 28 29 30 30 31 30 30 30 31 31 31 32 32 32 32 32 33 34 34 35 35 35 36 37 37 38 38 39 39 39 38 37 36 36 37 37 37 37 36 36 36 35
17 11 10 14 19 21 22 23 24 25 26 26 26 25 25 25 25 25 25 25 25 26 27 28 29 30 31 31 31 31 31 31 32 32 32 32 32 32 33 34 34 33 33 34 35 36 37 38 38 38 38 38 38 37 37 36 36 36 36 36 36 36 36
16 14 16 21 24 24 25 25 26 28 29 29 28 28 27 27 27 27 27 27 27 27 27 28 28 29 29 30 30 30 30 30 30 30 31 31 32 32 32 32 32 32 32 32 33 34 35 36 37 37 37 37 37 36 36 36 35 35 35 35 35 35 35
19 20 23 25 26 26 27 27 29 30 31 30 30 29 29 29 29 29 28 28 28 27 27 28 28 28 28 28 28 29 28 28 28 28 28 29 29 30 30 30 31 31 31 31 31 32 33 34 35 35 36 35 35 35 35 34 34 34 34 34 34 34 34
Wind_Direction
211 212 210 207 206 203 199 194 185 177 176 181 183 182 183 190 195 199 203 204 203 205 202 196 191 192 194 193 188 185 182 180 182 181 179 178 177 173 172 173 173 169 170 176 180 184 185 185 185 184 186 189 191 195 197 201 205 207 210 212 215 219 222
211 213 212 211 210 206 201 196 189 181 176 178 183 184 185 188 193 197 203 207 208 209 207 205 200 196 196 198 196 192 186 181 182 187 188 185 180 176 179 183 181 177 177 178 177 179 179 180 184 186 188 191 194 197 198 201 206 211 215 221 226 228 230
212 214 214 215 215 212 207 200 192 185 182 180 182 186 186 186 189 196 204 207 210 212 211 209 206 201 200 201 200 199 195 187 183 187 192 192 186 183 186 190 189 185 182 179 177 179 179 175 179 184 185 189 196 199 201 205 210 214 217 221 224 229 233
212 215 217 219 218 216 213 208 200 191 188 186 184 187 187 184 186 199 208 206 208 213 213 212 211 207 204 204 203 203 201 196 191 190 192 195 195 191 190 193 195 190 185 184 183 184 183 177 178 182 184 187 193 198 204 209 212 218 222 221 220 225 231
215 218 220 221 221 219 217 214 208 200 195 194 191 190 190 188 192 206 216 210 205 209 211 209 210 210 208 207 206 204 203 201 200 198 196 196 198 198 194 194 197 196 193 190 189 189 188 183 183 187 189 191 193 196 202 208 211 218 225 224 222 225 229
220 223 223 223 223 222 219 218 215 210 206 204 200 197 195 195 198 208 221 220 211 210 211 209 208 208 208 208 207 207 205 202 202 203 203 201 201 200 199 198 198 200 201 198 194 193 193 191 192 195 197 199 199 199 201 205 207 212 221 224 224 225 228
221 223 224 224 224 224 222 220 219 217 216 213 207 204 202 201 203 209 220 225 220 215 215 214 211 208 208 208 208 208 208 206 204 204 206 207 205 203 203 204 202 202 205 204 201 199 198 197 198 200 202 202 203 203 203 205 205 206 212 218 220 221 223
219 220 222 223 224 225 224 224 223 222 221 217 211 207 206 206 207 211 218 223 223 221 218 217 215 212 210 211 210 208 208 208 207 206 207 209 209 207 207 208 207 206 208 207 206 205 204 204 205 205 205 204 205 207 207 207 207 207 210 214 217 216 216
218 220 222 223 225 227 227 227 227 226 224 220 214 210 209 210 211 215 219 221 222 222 220 218 217 215 214 213 212 211 210 210 209 209 210 211 211 210 210 211 212 212 211 210 210 209 208 210 211 210 209 207 208 211 210 211 212 211 212 216 219 217 217
222 224 225 226 229 231 229 228 229 229 226 222 219 216 214 213 214 219 224 225 224 224 225 222 219 218 218 217 216 215 214 214 214 213 214 215 215 214 214 214 216 216 215 215 214 212 211 213 215 216 215 212 213 215 216 216 217 218 218 221 223 222 222
218 223 224 226 230 232 232 232 233 234 231 227 224 223 222 221 222 225 228 230 229 229 229 228 226 223 221 221 221 221 219 219 219 219 219 219 220 220 220 220 219 220 219 220 220 218 215 214 215 218 219 218 219 220 221 221 222 223 223 225 227 227 227
205 213 219 224 227 230 230 231 234 237 237 233 229 227 226 226 229 232 233 234 233 231 230 229 229 228 226 224 224 223 222 222 223 224 223 223 223 222 223 224 224 224 223 223 224 224 222 218 216 217 218 220 222 222 223 224 225 226 227 228 229 230 231
201 209 217 223 225 226 225 227 231 236 238 237 234 232 231 230 232 235 236 236 235 235 234 231 230 229 227 226 226 224 223 223 224 225 225 225 226 225 225 226 227 228 228 226 226 227 227 225 221 219 218 220 222 223 224 227 228 230 231 233 234 234 234
198 204 211 215 216 220 222 227 233 234 234 235 235 235 237 237 237 238 238 236 235 237 238 236 234 232 227 223 223 224 225 223 222 222 225 226 226 226 226 227 228 230 231 231 230 229 230 230 228 225 222 222 223 225 227 230 231 233 235 238 240 241 240
201 205 211 207 198 208 218 227 235 236 232 232 228 228 234 236 237 238 237 237 238 238 238 238 239 240 235 227 223 225 228 229 225 221 225 230 232 231 230 229 229 231 233 235 234 233 232 232 232 230 228 227 227 228 231 234 236 238 239 240 242 244 244
207 211 217 207 193 199 209 213 223 233 236 234 221 214 224 230 232 235 237 240 241 241 239 239 241 244 243 235 229 229 234 237 234 228 229 235 238 239 237 235 232 231 233 236 237 237 236 235 235 234 231 230 229 231 234 238 240 243 245 245 245 244 244
215 219 224 207 193 194 195 197 204 215 227 229 214 205 214 222 228 234 238 241 241 240 240 240 241 245 246 241 235 234 237 240 238 234 235 238 240 240 239 239 237 234 233 236 238 240 240 239 238 238 237 234 232 232 234 238 241 245 248 250 250 248 246
228 226 221 212 198 190 187 187 191 195 205 212 209 208 213 217 222 229 234 235 234 232 233 236 237 240 243 241 237 234 235 239 238 235 237 240 242 241 240 241 242 238 234 235 238 240 243 243 242 242 242 241 238 236 235 237 240 245 248 251 253 253 251
203 193 194 214 221 199 192 190 187 188 194 199 201 207 214 218 221 227 232 232 231 229 228 231 234 235 236 239 241 237 235 240 242 240 239 241 244 244 243 244 246 242 237 237 239 240 244 246 246 246 246 246 245 242 240 238 239 242 247 250 253 254 254
174 176 182 192 201 191 187 189 186 187 193 198 200 204 211 217 219 223 227 227 225 223 219 222 229 233 235 240 245 246 243 245 248 246 242 240 241 242 242 241 243 243 240 240 241 242 244 246 248 249 249 249 249 247 245 243 241 240 242 246 249 252 255
171 178 181 185 191 185 178 185 196 199 200 203 205 202 204 210 211 213 218 217 213 212 212 215 222 229 234 239 244 247 245 245 248 246 241 239 238 237 237 238 240 243 245 246 246 246 247 248 250 253 254 254 252 249 247 245 243 240 238 240 244 247 250
154 173 182 190 199 199 190 193 206 214 214 213 211 205 202 206 207 209 215 218 215 214 217 222 224 225 228 234 238 240 238 238 242 242 241 240 237 233 234 237 239 243 248 249 248 249 250 251 253 257 259 258 254 251 248 246 244 244 242 240 241 244 247
120 148 172 184 195 204 208 211 219 227 230 225 218 212 208 206 207 210 216 219 218 216 219 224 228 228 227 227 230 234 235 235 237 239 240 241 241 239 239 240 241 242 245 245 245 247 249 248 249 252 254 254 252 250 250 248 247 248 250 246 242 243 246
116 132 148 161 181 198 209 216 223 229 228 217 211 210 209 207 206 208 212 213 213 211 213 218 226 232 233 231 231 235 237 235 234 236 239 244 247 247 244 242 240 240 240 240 241 242 243 242 243 245 246 246 248 248 248 249 251 252 252 249 245 245 245
117 134 148 154 157 172 190 199 204 202 194 189 193 197 199 198 199 201 202 204 206 205 204 206 212 221 228 227 222 223 226 225 226 228 230 236 242 244 243 242 242 240 238 238 239 240 240 240 242 246 247 247 248 250 251 253 254 253 251 250 249 250 249
133 138 153 166 165 165 174 180 181 181 181 183 187 191 191 189 188 190 192 196 200 201 200 199 200 205 213 216 212 209 208 211 215 217 217 220 227 234 236 238 239 240 239 240 242 242 242 241 242 247 253 254 255 256 257 257 256 255 253 253 253 254 254
164 162 159 171 180 184 187 189 189 187 187 188 192 198 202 202 198 196 198 203 209 214 217 216 213 212 215 220 222 220 216 214 216 220 219 217 218 224 228 229 231 235 238 241 245 247 248 248 246 247 251 255 257 258 258 258 257 256 254 255 257 259 259
166 163 158 168 182 192 199 203 204 204 205 205 207 211 215 219 220 219 217 218 222 229 236 239 241 240 239 240 240 239 236 231 228 232 237 238 238 238 241 241 241 244 247 251 258 262 264 265 261 254 252 253 256 259 260 261 262 261 259 259 260 261 261
173 163 156 164 183 202 211 216 222 226 228 229 229 231 231 233 235 234 233 233 234 236 242 246 249 252 253 255 255 255 253 248 242 239 241 246 250 253 255 256 257 259 261 262 265 269 272 274 275 274 272 271 272 274 274 274 274 273 271 268 264 261 261
184 174 169 182 220 244 245 248 253 255 256 254 252 251 248 247 247 245 245 246 245 245 248 249 251 254 256 258 262 263 265 265 261 257 251 249 251 254 257 259 260 261 262 264 266 269 272 276 278 280 281 283 284 285 285 285 285 283 281 277 272 267 263
204 198 206 226 255 264 263 266 269 270 272 271 269 267 264 261 259 257 256 256 256 256 258 257 257 257 257 259 262 264 266 268 269 269 268 265 262 261 260 260 261 262 263 264 266 268 270 273 276 277 279 280 281 282 284 285 286 286 285 284 282 278 273
239 239 244 252 265 268 269 274 276 276 277 275 272 270 269 266 264 262 261 261 262 263 264 265 265 264 262 262 262 262 263 265 267 269 271 272 273 272 271 269 267 267 268 268 268 269 269 270 272 273 275 277 279 280 281 282 283 284 284 285 285 284 283
231 238 246 253 258 264 270 275 277 277 277 275 272 269 268 266 265 263 262 262 263 264 265 266 267 268 268 267 266 265 265 264 265 266 267 269 271 272 273 273 273 273 274 274 274 273 273 272 271 271 271 273 275 277 278 280 281 282 282 283 283 283 283
220 223 231 243 250 257 265 269 271 273 275 275 274 272 270 269 268 266 264 263 263 263 264 264 266 268 269 270 269 269 268 267 266 266 266 266 267 268 269 271 271 273 273 274 274 275 275 275 275 274 273 273 272 273 275 276 278 279 280 280 281 281 281
215 214 225 243 250 256 263 268 272 276 278 279 279 277 275 275 274 272 269 267 265 265 265 265 266 266 267 268 269 269 269 269 268 267 267 267 267 267 268 269 269 270 271 271 272 272 273 273 274 274 274 274 274 274 274 274 275 276 277 277 278 278 279
223 223 235 249 255 259 264 270 275 279 282 283 283 280 279 278 277 275 274 272 270 269 268 267 267 266 266 266 266 266 267 267 268 268 267 267 267 268 268 269 270 270 271 271 272 272 272 272 272 273 273 274 274 274 274 274 275 275 275 276 276 276 277
242 242 241 247 253 259 266 272 277 280 282 283 282 280 279 277 276 275 274 274 273 272 270 268 267 266 265 265 265 265 265 266 267 267 267 267 267 267 267 268 269 270 271 271 272 272 273 273 273 273 273 274 274 274 274 274 275 275 276 276 276 276 276
238 238 239 245 251 258 265 271 274 277 279 279 278 277 275 274 274 274 274 273 273 272 270 268 266 264 264 264 264 265 266 267 268 268 268 268 268 268 268 268 268 269 270 270 270 270 271 272 272 273 274 274 275 275 275 275 276 277 278 278 279 278 278
Height
3192 3195 3197 3200 3202 3205 3208 3210 3212 3213 3215 3217 3218 3219 3221 3223 3224 3226 3227 3229 3230 3232 3233 3234 3235 3236 3237 3239 3240 3241 3242 3244 3245 3246 3247 3248 3249 3250 3251 3252 3253 3254 3255 3257 3258 3259 3260 3260 3261 3262 3263 3263 3264 3265 3265 3266 3266 3267 3267 3268 3268 3268 3269
3190 3194 3197 3199 3201 3204 3207 3209 3211 3212 3214 3216 3218 3219 3221 3222 3224 3225 3227 3228 3230 3231 3233 3234 3235 3236 3237 3238 3239 3240 3242 3243 3244 3246 3247 3247 3248 3249 3251 3252 3253 3254 3255 3256 3257 3258 3259 3260 3261 3261 3262 3263 3264 3264 3265 3265 3266 3266 3267 3267 3268 3268 3268
3190 3193 3196 3198 3200 3203 3206 3208 3210 3211 3213 3215 3217 3219 3221 3222 3224 3225 3227 3228 3229 3230 3232 3233 3234 3236 3236 3237 3239 3240 3241 3242 3244 3245 3247 3247 3248 3249 3250 3251 3253 3253 3254 3255 3256 3257 3258 3259 3260 3261 3262 3263 3264 3264 3265 3265 3265 3266 3266 3267 3267 3267 3268
3189 3192 3194 3197 3199 3202 3205 3207 3209 3211 3212 3214 3216 3219 3221 3222 3224 3225 3226 3227 3228 3229 3231 3233 3234 3235 3236 3237 3238 3240 3241 3242 3243 3245 3246 3247 3247 3248 3249 3251 3252 3253 3253 3254 3255 3256 3257 3258 3259 3260 3261 3262 3263 3264 3264 3265 3265 3265 3266 3266 3266 3267 3267
3188 3190 3193 3195 3198 3201 3203 3206 3208 3210 3211 3213 3215 3218 3220 3221 3223 3224 3225 3226 3227 3228 3229 3231 3232 3234 3235 3236 3238 3239 3240 3241 3243 3244 3245 3246 3247 3248 3249 3250 3251 3252 3252 3253 3254 3255 3256 3257 3258 3259 3260 3261 3262 3263 3263 3264 3264 3265 3265 3265 3266 3266 3266
3186 3189 3191 3193 3196 3199 3202 3204 3207 3208 3210 3212 3214 3217 3218 3220 3222 3223 3224 3225 3226 3227 3228 3229 3231 3232 3234 3235 3237 3238 3239 3240 3241 3242 3243 3245 3246 3247 3248 3248 3249 3250 3251 3252 3253 3254 3255 3256 3257 3258 3259 3260 3260 3261 3262 3263 3263 3264 3264 3265 3265 3265 3266
3185 3187 3189 3191 3194 3197 3199 3202 3204 3206 3208 3210 3213 3215 3217 3219 3220 3222 3223 3224 3225 3226 3227 3228 3230 3231 3233 3234 3235 3237 3238 3239 3240 3241 3242 3243 3244 3246 3247 3247 3248 3249 3250 3251 3252 3253 3254 3255 3256 3257 3258 3258 3259 3260 3261 3261 3262 3263 3263 3264 3264 3264 3265
3183 3186 3187 3189 3191 3193 3196 3199 3201 3203 3205 3208 3210 3212 3214 3217 3219 3221 3222 3223 3223 3225 3226 3227 3229 3230 3231 3233 3234 3235 3236 3237 3238 3239 3240 3241 3243 3244 3246 3247 3248 3248 3249 3250 3251 3252 3253 3254 3255 3255 3256 3257 3258 3259 3259 3260 3261 3261 3262 3263 3263 3264 3264
3181 3184 3185 3188 3189 3191 3194 3196 3198 3200 3203 3205 3208 3210 3212 3215 3217 3219 3220 3221 3222 3223 3224 3226 3227 3229 3230 3231 3232 3233 3234 3235 3236 3237 3239 3240 3241 3243 3244 3246 3247 3247 3248 3249 3250 3251 3252 3253 3254 3254 3255 3256 3257 3257 3258 3259 3260 3260 3261 3262 3262 3263 3263
3180 3182 3184 3186 3188 3190 3193 3195 3196 3198 3201 3203 3206 3208 3210 3213 3215 3216 3218 3220 3221 3222 3223 3224 3226 3227 3228 3230 3231 3232 3233 3234 3235 3236 3238 3239 3241 3242 3243 3245 3246 3246 3247 3248 3249 3250 3251 3251 3252 3253 3254 3255 3256 3256 3257 3258 3258 3259 3260 3260 3261 3261 3262
3178 3180 3181 3183 3186 3189 3191 3192 3194 3196 3199 3202 3204 3206 3208 3211 3213 3214 3216 3219 3220 3221 3222 3223 3224 3225 3227 3228 3229 3230 3231 3233 3234 3235 3237 3238 3239 3241 3242 3243 3244 3246 3247 3247 3248 3249 3249 3250 3251 3252 3253 3254 3255 3256 3256 3257 3257 3258 3259 3259 3260 3260 3261
3176 3177 3179 3181 3184 3186 3189 3191 3193 3194 3196 3198 3201 3204 3207 3209 3211 3212 3215 3217 3218 3218 3220 3222 3223 3224 3225 3226 3227 3228 3230 3231 3232 3234 3235 3237 3238 3239 3240 3242 3243 3244 3245 3246 3247 3248 3248 3249 3250 3251 3252 3253 3254 3255 3255 3256 3256 3257 3258 3258 3259 3259 3260
3174 3176 3177 3180 3183 3185 3188 3190 3191 3193 3195 3196 3199 3203 3206 3207 3209 3210 3212 3214 3215 3216 3217 3219 3221 3221 3223 3224 3225 3227 3228 3229 3230 3231 3233 3234 3235 3237 3238 3239 3241 3242 3244 3245 3245 3246 3247 3248 3249 3249 3250 3251 3252 3253 3254 3255 3255 3256 3257 3257 3257 3258 3258
3174 3175 3177 3180 3182 3184 3186 3188 3188 3191 3194 3196 3199 3203 3204 3205 3206 3207 3208 3209 3211 3213 3215 3217 3218 3218 3218 3221 3223 3224 3225 3225 3226 3227 3229 3230 3232 3233 3235 3236 3238 3240 3241 3242 3243 3244 3245 3246 3247 3248 3248 3249 3250 3251 3252 3253 3254 3255 3255 3256 3256 3256 3257
3174 3175 3177 3179 3182 3184 3185 3186 3186 3188 3190 3193 3198 3201 3201 3201 3203 3204 3204 3206 3207 3210 3212 3214 3214 3213 3215 3219 3221 3221 3221 3220 3222 3224 3226 3228 3230 3231 3233 3234 3235 3237 3238 3240 3241 3242 3243 3243 3244 3245 3246 3247 3248 3249 3250 3251 3252 3253 3254 3254 3255 3255 3255
3173 3174 3176 3179 3181 3183 3184 3184 3185 3187 3188 3191 3197 3199 3198 3199 3202 3202 3202 3203 3205 3207 3209 3210 3210 3209 3211 3217 3220 3220 3218 3218 3221 3224 3224 3226 3228 3230 3231 3232 3233 3234 3235 3237 3238 3239 3240 3241 3242 3243 3243 3244 3245 3247 3248 3249 3250 3252 3252 3253 3253 3254 3254
3172 3173 3175 3177 3180 3182 3182 3184 3186 3187 3187 3189 3194 3197 3197 3198 3200 3200 3200 3201 3202 3205 3206 3208 3208 3207 3209 3215 3218 3218 3216 3215 3219 3222 3222 3223 3225 3227 3228 3229 3231 3232 3233 3234 3236 3237 3238 3238 3239 3240 3241 3242 3242 3243 3244 3246 3248 3249 3250 3251 3252 3252 3252
3170 3171 3173 3175 3179 3181 3182 3183 3185 3186 3187 3187 3190 3193 3195 3197 3198 3198 3198 3199 3200 3202 3204 3205 3206 3207 3209 3212 3213 3214 3214 3213 3215 3218 3220 3221 3222 3224 3225 3227 3229 3231 3231 3231 3233 3234 3235 3236 3237 3238 3239 3240 3240 3241 3241 3243 3245 3246 3247 3248 3249 3249 3250
3170 3171 3173 3174 3177 3179 3181 3182 3184 3185 3186 3187 3189 3191 3192 3194 3196 3197 3197 3198 3199 3200 3202 3204 3204 3205 3207 3208 3208 3209 3211 3211 3211 3214 3217 3218 3219 3221 3223 3224 3227 3228 3228 3229 3230 3231 3233 3234 3235 3235 3236 3237 3238 3239 3239 3240 3241 3243 3244 3245 3246 3246 3247
3169 3172 3174 3175 3176 3178 3179 3182 3183 3184 3185 3187 3188 3189 3191 3193 3195 3196 3196 3197 3198 3199 3201 3203 3202 3202 3204 3205 3205 3205 3207 3208 3209 3211 3213 3214 3216 3218 3220 3222 3224 3225 3225 3226 3227 3228 3229 3231 3232 3233 3234 3235 3236 3237 3238 3239 3239 3239 3241 3242 3243 3244 3244
3169 3172 3174 3176 3177 3177 3178 3180 3182 3184 3185 3186 3187 3189 3191 3192 3193 3194 3195 3196 3198 3199 3200 3201 3201 3202 3202 3203 3204 3204 3205 3207 3208 3209 3211 3212 3213 3215 3217 3219 3221 3221 3222 3223 3224 3225 3226 3227 3228 3230 3231 3233 3233 3234 3236 3237 3237 3237 3238 3239 3240 3241 3241
3169 3171 3173 3175 3177 3178 3179 3180 3182 3183 3184 3185 3186 3188 3190 3191 3191 3192 3194 3195 3196 3197 3198 3199 3200 3201 3202 3202 3203 3203 3204 3205 3207 3208 3209 3210 3211 3213 3215 3216 3217 3218 3219 3220 3221 3222 3223 3224 3225 3227 3228 3229 3230 3231 3233 3234 3234 3235 3237 3237 3238 3239 3239
3169 3171 3172 3174 3175 3177 3179 3180 3182 3182 3183 3184 3185 3186 3188 3189 3191 3192 3193 3194 3195 3196 3197 3197 3198 3199 3200 3201 3202 3202 3203 3205 3206 3206 3206 3208 3210 3211 3212 3212 3213 3214 3215 3216 3217 3219 3220 3221 3222 3224 3225 3225 3226 3228 3229 3229 3230 3234 3237 3237 3236 3237 3237
3169 3170 3171 3173 3174 3176 3178 3180 3181 3181 3182 3182 3183 3184 3186 3188 3190 3191 3192 3193 3193 3194 3195 3196 3196 3197 3198 3199 3200 3201 3202 3203 3204 3204 3205 3206 3207 3208 3209 3210 3211 3212 3213 3214 3215 3216 3217 3219 3220 3221 3222 3222 3222 3223 3224 3225 3227 3232 3234 3234 3234 3234 3234
3168 3170 3171 3172 3173 3175 3177 3179 3180 3181 3181 3182 3183 3184 3185 3186 3188 3189 3190 3191 3192 3193 3194 3195 3195 3196 3196 3197 3198 3199 3200 3200 3201 3202 3203 3205 3206 3206 3207 3208 3209 3210 3211 3212 3213 3214 3215 3216 3217 3217 3218 3218 3219 3220 3221 3223 3227 3229 3229 3229 3230 3230 3231
3168 3170 3171 3172 3173 3175 3177 3179 3180 3181 3182 3182 3183 3184 3184 3185 3187 3188 3189 3190 3191 3192 3193 3194 3195 3195 3196 3196 3197 3197 3198 3199 3199 3201 3202 3203 3204 3205 3205 3206 3207 3208 3209 3210 3211 3211 3212 3213 3213 3214 3215 3215 3216 3217 3219 3221 3224 3225 3225 3226 3227 3227 3227
3168 3169 3171 3172 3174 3175 3177 3179 3180 3181 3182 3183 3184 3184 3185 3185 3186 3187 3188 3189 3190 3191 3191 3192 3193 3194 3195 3195 3196 3196 3197 3198 3198 3199 3200 3201 3202 3203 3204 3204 3205 3206 3207 3207 3208 3208 3209 3210 3210 3210 3212 3213 3214 3215 3216 3218 3220 3222 3222 3223 3224 3223 3223
3168 3169 3171 3172 3173 3175 3177 3178 3180 3181 3182 3183 3183 3184 3184 3185 3185 3186 3187 3188 3189 3189 3190 3191 3191 3192 3193 3194 3194 3195 3196 3197 3197 3198 3198 3199 3200 3200 3201 3202 3203 3204 3204 3205 3205 3206 3206 3207 3208 3208 3209 3210 3211 3212 3213 3213 3215 3216 3218 3219 3220 3219 3219
3167 3168 3170 3171 3173 3174 3176 3177 3178 3179 3180 3181 3182 3183 3183 3184 3184 3185 3185 3186 3187 3188 3188 3189 3190 3190 3191 3192 3192 3193 3193 3194 3195 3196 3197 3197 3197 3198 3199 3199 3200 3201 3202 3203 3204 3204 3204 3205 3205 3205 3205 3206 3207 3207 3208 3209 3210 3211 3212 3213 3214 3214 3214
3165 3167 3168 3170 3172 3173 3174 3175 3176 3177 3178 3178 3179 3180 3181 3181 3182 3182 3183 3184 3185 3185 3186 3187 3188 3188 3189 3190 3190 3191 3191 3191 3192 3193 3195 3195 3196 3196 3196 3197 3198 3199 3200 3201 3201 3202 3202 3202 3202 3202 3202 3202 3203 3203 3204 3205 3206 3207 3208 3208 3209 3209 3209
3165 3167 3168 3169 3170 3171 3172 3173 3174 3174 3175 3176 3177 3177 3178 3179 3180 3180 3180 3181 3181 3182 3183 3184 3185 3186 3187 3188 3189 3189 3189 3189 3189 3190 3190 3192 3192 3193 3194 3194 3195 3196 3197 3198 3198 3199 3199 3199 3200 3200 3200 3200 3200 3201 3201 3202 3202 3203 3204 3204 3204 3204 3205
3165 3167 3167 3167 3168 3169 3170 3171 3171 3172 3173 3174 3174 3175 3176 3176 3177 3178 3178 3179 3179 3179 3180 3181 3182 3183 3184 3185 3186 3187 3187 3187 3187 3187 3188 3188 3188 3189 3190 3191 3192 3193 3194 3195 3195 3196 3196 3197 3197 3197 3198 3198 3198 3198 3198 3198 3199 3199 3200 3200 3200 3200 3200
3164 3165 3166 3166 3167 3167 3168 3169 3169 3170 3170 3171 3171 3172 3173 3173 3174 3175 3176 3176 3177 3177 3178 3178 3179 3180 3180 3181 3182 3183 3184 3184 3185 3185 3186 3186 3186 3186 3186 3186 3188 3189 3190 3190 3191 3192 3192 3193 3194 3194 3195 3195 3195 3195 3194 3194 3195 3195 3196 3196 3196 3196 3196
3160 3162 3164 3165 3165 3166 3166 3167 3167 3167 3168 3168 3168 3169 3169 3170 3171 3172 3172 3173 3174 3174 3175 3175 3176 3176 3177 3177 3178 3179 3180 3181 3181 3182 3183 3183 3183 3183 3183 3183 3184 3185 3186 3186 3186 3187 3187 3188 3189 3190 3191 3191 3192 3192 3191 3191 3191 3191 3191 3192 3192 3192 3192
3156 3158 3161 3163 3164 3164 3164 3164 3164 3164 3165 3165 3165 3166 3166 3167 3167 3168 3169 3170 3170 3171 3171 3172 3172 3173 3173 3174 3174 3175 3175 3176 3177 3178 3179 3179 3180 3180 3180 3180 3180 3181 3182 3182 3182 3182 3183 3183 3183 3184 3185 3186 3187 3187 3187 3187 3186 3186 3187 3187 3187 3187 3187
3154 3157 3159 3161 3162 3162 3162 3162 3162 3162 3162 3162 3163 3163 3163 3164 3164 3165 3166 3166 3167 3168 3168 3168 3168 3169 3169 3170 3170 3171 3171 3172 3172 3173 3174 3175 3175 3176 3176 3176 3176 3177 3177 3177 3177 3177 3178 3178 3178 3179 3180 3180 3181 3181 3182 3182 3182 3182 3182 3182 3182 3183 3183
3153 3155 3157 3159 3160 3160 3160 3160 3159 3159 3159 3160 3160 3160 3160 3160 3161 3162 3163 3163 3164 3164 3165 3165 3165 3165 3166 3166 3166 3167 3167 3168 3168 3169 3170 3170 3171 3171 3172 3172 3172 3173 3173 3173 3173 3173 3172 3173 3173 3173 3174 3175 3175 3176 3177 3177 3177 3177 3177 3177 3177 3178 3178
3150 3152 3154 3156 3157 3157 3157 3157 3157 3156 3156 3157 3157 3157 3157 3157 3158 3159 3160 3160 3161 3161 3161 3162 3162 3162 3162 3163 3163 3163 3164 3164 3165 3165 3166 3166 3166 3167 3167 3168 3168 3169 3169 3169 3169 3168 3168 3168 3168 3168 3169 3169 3170 3170 3171 3172 3172 3172 3172 3172 3172 3172 3173